www.pogodaiklimat.ru
ПОГОДА в Чанате
Время
(UTC), дата
15:52 09.12
16:13 09.12
16:45 09.12
16:52 09.12
17:30 09.12
17:52 09.12
18:52 09.12
19:52 09.12
20:52 09.12
21:52 09.12
22:52 09.12
23:52 09.12
00:52 09.12
01:52 09.12
02:52 09.12
03:52 09.12
04:52 09.12
05:52 10.12
06:52 10.12
07:52 10.12
08:52 10.12
09:52 10.12
10:52 10.12
11:52 10.12
12:52 10.12
13:52 10.12
14:52 10.12
15:52 10.12
16:52 10.12
17:52 10.12
18:52 10.12
19:52 10.12
20:52 10.12
21:52 10.12
22:52 10.12
23:52 10.12
00:52 10.12
01:52 10.12
02:52 10.12
03:52 10.12
04:52 10.12
05:52 11.12
06:52 11.12
07:52 11.12
08:52 11.12
09:52 11.12
10:52 11.12
11:52 11.12
Ветер
(напр.,м/с)
Видим. Явления Облачность Т
(С)
Тd
(С)
f
(%)
Тe
(С)
Тes
(С)
Комфортность P
(гПа)
Po
(гПа)
Тmin
(С)
Tmax
(С)
R
(мм)
R24
(мм)
S
(см)
С 9
{14}
14 км 10/10 240 м +3.3 +0.6 82 -4 -4 1010.2 974.0
СЗ 10
{15}
16 км 10/10 330 м +3.3 -0.6 76 -4 -4 974.4
СЗ 8
{13}
16 км 10/10 450 м +2.8 -2.2 70 -4 -4 975.0
С 10
{16}
16 км 10/10 450 м +2.2 -2.8 69 -5 -5 1011.4 975.0 +2.2 +9.4
С 8
{13}
16 км 5/5 570 м +3.9 -3.9 57 -2 -2 975.3
С 9
{13}
16 км ясно +3.9 -4.4 55 -2 -2 1012.4 976.0
СЗ 9
{14}
16 км ясно +2.8 -6.1 52 -4 -4 1013.0 976.6
С 8
{14}
16 км ясно +2.2 -7.2 50 -4 -4 1013.9 977.3
С 7
{12}
16 км ясно +1.1 -8.3 49 -5 -5 1015.7 979.3
СЗ 6
{10}
16 км ясно +0.6 -8.9 49 -5 -5 1016.7 979.9
СЗ 6
{9}
16 км ясно 0.0 -8.9 51 -6 -6 1018.3 981.5 0.0 +3.9
С 6 16 км ясно -1.1 -9.4 53 -8 -8 1019.6 982.8
С 3 16 км ясно -1.7 -9.4 56 -6 -6 1020.9 984.2
С 3 16 км ясно -2.8 -10.0 58 -8 -8 1021.9 984.8
СЗ 3 16 км ясно -3.3 -9.4 63 -8 -8 1023.0 985.8
СЗ 2 16 км ясно -3.9 -9.4 66 -8 -8 1024.0 986.8
СЗ 3 16 км ясно -4.4 -9.4 68 -10 -10 1024.0 986.8 -4.4 0.0
СЗ 2 16 км ясно -5.0 -9.4 71 -10 -10 1023.7 986.4
0 16 км ясно -6.1 -8.9 81 -7 -7 1024.0 986.8
З 1 16 км ясно -5.6 -8.3 81 -9 -9 1024.4 987.1
0 16 км ясно -5.6 -8.3 81 -6 -6 1024.2 986.8
ЮЗ 1 16 км ясно -6.1 -8.9 81 -10 -10 1023.5 986.1
0 16 км ясно -5.6 -9.4 75 -6 -6 1023.7 986.1 -6.7 -4.4
0 16 км ясно -5.6 -8.9 78 -6 -6 1025.4 987.7
З 2 16 км ясно -5.6 -8.9 78 -11 -11 1026.3 988.7
Ю 3 16 км ясно -3.9 -7.8 74 -9 -9 1027.1 989.4
Ю 4 16 км ясно -1.7 -7.2 66 -8 -7 1028.1 990.4
З 3 16 км ясно +1.1 -7.2 54 -3 -1 1028.2 990.7
З 4 16 км ясно +3.3 -7.2 46 -1 +1 1027.9 990.4 -6.7 +3.3
СЗ 3 16 км ясно +4.4 -6.1 46 +1 +5 1027.3 989.7
С 4 16 км ясно +6.1 -6.7 39 +3 +6 1027.4 990.0
нст 1 16 км ясно +5.6 -6.1 43 +4 +9 1027.4 990.0
З 1 16 км 2/0 3000 м
[средняя]
+4.4 -6.1 46 +3 +5 1028.6 991.0
0 16 км 10/0 3000 м
[средняя]
+3.3 -5.0 54 +3 +3 1029.1 991.3
С 1 16 км 10/0 3000 м
[средняя]
+3.3 -6.7 48 +2 +2 1029.8 992.0 +2.8 +6.1
0 16 км 10/0 2850 м
[средняя]
+3.3 -6.1 50 +3 +3 1030.4 992.6
0 16 км 10/0 3000 м
[средняя]
+1.1 -5.6 61 +1 +1 1030.6 993.0
0 16 км 2/0 3000 м
[средняя]
-1.7 -6.7 69 -3 -3 1030.5 992.6
0 16 км ясно -3.3 -7.8 71 -4 -4 1030.4 992.6
Ю 3 16 км ясно -4.4 -7.8 77 -10 -10 1030.3 992.6
Ю 3 16 км ясно -3.9 -7.2 78 -9 -9 1030.2 992.6 -4.4 +3.3
Ю 4 16 км ясно -2.2 -6.7 71 -8 -8 1029.6 992.0
Ю 4 16 км ясно -2.2 -6.7 71 -8 -8 1029.3 992.0
ЮЗ 3 16 км ясно -2.8 -6.7 74 -8 -8 1029.6 992.0
ЮЗ 3 16 км ясно -2.8 -6.7 74 -8 -8 1029.2 991.7
ЮЗ 4 16 км ясно -2.2 -6.7 71 -8 -8 1029.4 992.0
ЮЗ 4 16 км ясно -2.2 -6.7 71 -8 -8 1029.5 992.0 -4.4 -1.7
ЮЗ 4 16 км ясно -2.2 -6.7 71 -8 -8 1030.0 992.3
Местоположение метеостанции Chanute Martin Johnson Airport: широта 37.6703 долгота -95.4842 высота над уровнем моря 305 м.
В архиве по умолчанию представлена погода в Чанате за последние 1-2 суток. Обновление информации о фактической погоде в базе происходит ежечасно! Архивные данные за месяц целиком и за предыдущие месяцы Вы можете получить, выбрав интересующий диапазон дат из раскрывающегося списка и нажав кнопку "Ввод!".
Внимание! Архив погоды МЕТАР в базе сайта по станциям, не включенным в климатический монитор, хранится не более 60 дней. Нет смысла пытаться выбрать более раннюю дату.
*Определитесь, кто Вы:
Внимание! Время в таблицах - всемирное. Для получения местного времени необходимо прибавить поправку, которая равна ч.
Смотрите также архив погоды в соседних городах и на ближайших метеорологических станциях:
Партнеры нашего сайта:      
Пояснения к столбцам:
  • Ветер - указаны скорость ветра в м/с - средняя за 10 мин, порывы в срок и между сроками (в фигурных скобках) и направление, откуда дует ветер: С - северный,
  • СВ - северо-восточный, В - восточный, ЮВ - юго-восточный, Ю - южный, ЮЗ - юго-западный, З - западный, СЗ - северо-западный.
  • Видимость - горизонтальная дальность видимости в метрах или километрах. При видимости от 1 до 10 км при отсутствии осадков обычно наблюдается дымка, при ухудшении видимости до 1 км и менее - туман. В сухую погоду видимость может ухудшаться дымом, пылью или мглою.
  • Явления - указаны атмосферные явления, наблюдавшиеся в срок или в последний час перед сроком; фигурными скобками обозначены явления, наблюдавшиеся между сроками (за 1-3 часа до срока); квадратными скобками обозначены град или гололедные отложения с указанием их диаметра в мм.
  • Облачность - указаны через наклонную черту общая и нижняя облачность в баллах и высота нижней границы облаков в метрах; квадратными скобками обозначены формы облаков: Ci - перистые, Cs - перисто-слоистые, Cc - перисто-кучевые, Ac - высококучевые, As - высокослоистые, Sc - слоисто-кучевые, Ns - слоисто-дождевые, Cu - кучевые, Cb - кучево-дождевые. Подробнее классификацию облаков см. в Атласе облаков (PDF).
  • T - Температура воздуха - температура, измеренная на высоте 2 м над землей.
  • Td - Температура точки росы - температура, при понижении до которой содержащийся в воздухе водяной пар достигнет насыщения.
  • f - Относительная влажность воздуха - влажноcть воздуха, измеренная на высоте 2 м над землей.
  • Te - Эффективная температура - температура, которую ощущает одетый по сезону человек в тени. Характеристика душности погоды. При расчете учитывается влияние влажности воздуха и скорости ветра на теплоощущения человека.
  • Tes - Эффективная температура на солнце - температура, которую ощущает человек, с поправкой на солнечный нагрев. Характеристика знойности погоды. Зависит от высоты солнца над горизонтом, облачности и скорости ветра. Ночью, в пасмурную погоду, а также при ветре 12 м/с и более поправка равна нулю.
  • P - Атмосферное давление - приведенное к уровню моря атмосферное давление.
  • Po - Атмосферное давление - измеренное на уровне метеостанции атмосферное давление.
  • Tmin - Минимальная температура - минимум температуры воздуха на высоте 2 м над землей.
  • Tmax - Максимальная температура - максимум температуры воздуха на высоте 2 м над землей.
  • R - Количество осадков - Количество выпавших осадков за период времени, мм. При наведении курсора мыши на число - период времени, за который выпало указанное количество осадков.
  • R24 - Количество осадков - Количество выпавших осадков за 24 часа, мм.
  • S - Снежный покров - Высота снежного покрова, см. При наведении курсора мыши на число - состояние снежного покрова и степень покрытия местности в баллах.